Year,Month,Day,Hour,Minute,Value (Times are PST for temperature in C)
2012,08,20,00,01,15.00
2012,08,20,00,02,15.00
2012,08,20,00,03,15.00
2012,08,20,00,04,15.00
2012,08,20,00,05,15.00
2012,08,20,00,07,14.90
2012,08,20,00,08,14.90
2012,08,20,00,09,14.90
2012,08,20,00,10,14.80
2012,08,20,00,11,14.80
2012,08,20,00,12,14.80
2012,08,20,00,13,14.80
2012,08,20,00,14,14.80
2012,08,20,00,15,14.80
2012,08,20,00,16,14.80
2012,08,20,00,17,14.80
2012,08,20,00,18,14.70
2012,08,20,00,19,14.70
2012,08,20,00,20,14.70
2012,08,20,00,21,14.70
2012,08,20,00,22,14.70
2012,08,20,00,23,14.70
2012,08,20,00,24,14.60
2012,08,20,00,25,14.60
2012,08,20,00,26,14.60
2012,08,20,00,27,14.60
2012,08,20,00,28,14.60
2012,08,20,00,29,14.60
2012,08,20,00,30,14.60
2012,08,20,00,31,14.50
2012,08,20,00,32,14.50
2012,08,20,00,33,14.40
2012,08,20,00,34,14.40
2012,08,20,00,35,14.40
2012,08,20,00,36,14.40
2012,08,20,00,37,14.30
2012,08,20,00,38,14.30
2012,08,20,00,39,14.30
2012,08,20,00,40,14.30
2012,08,20,00,41,14.30
2012,08,20,00,43,14.20
2012,08,20,00,44,14.20
2012,08,20,00,45,14.20
2012,08,20,00,46,14.20
2012,08,20,00,47,14.10
2012,08,20,00,48,14.10
2012,08,20,00,50,14.10
2012,08,20,00,51,14.10
2012,08,20,00,52,14.10
2012,08,20,00,53,14.10
2012,08,20,00,54,14.10
2012,08,20,00,55,14.10
2012,08,20,00,56,14.10
2012,08,20,00,57,14.10
2012,08,20,00,58,14.00
2012,08,20,00,59,14.00
2012,08,20,01,01,14.10
2012,08,20,01,02,14.10
2012,08,20,01,03,14.00
2012,08,20,01,04,14.00
2012,08,20,01,05,14.00
2012,08,20,01,06,14.00
2012,08,20,01,07,14.00
2012,08,20,01,08,14.00
2012,08,20,01,09,14.00
2012,08,20,01,10,14.00
2012,08,20,01,11,13.90
2012,08,20,01,12,13.90
2012,08,20,01,13,13.90
2012,08,20,01,14,13.90
2012,08,20,01,15,13.90
2012,08,20,01,16,13.90
2012,08,20,01,17,13.90
2012,08,20,01,18,13.90
2012,08,20,01,19,13.90
2012,08,20,01,20,13.90
2012,08,20,01,21,13.90
2012,08,20,01,22,13.80
2012,08,20,01,23,13.80
2012,08,20,01,24,13.80
2012,08,20,01,25,13.80
2012,08,20,01,26,13.80
2012,08,20,01,27,13.80
2012,08,20,01,28,13.70
2012,08,20,01,29,13.70
2012,08,20,01,30,13.70
2012,08,20,01,31,13.70
2012,08,20,01,32,13.70
2012,08,20,01,33,13.60
2012,08,20,01,34,13.60
2012,08,20,01,35,13.60
2012,08,20,01,36,13.60
2012,08,20,01,37,13.60
2012,08,20,01,38,13.60
2012,08,20,01,39,13.60
2012,08,20,01,40,13.50
2012,08,20,01,41,13.50
2012,08,20,01,42,13.50
2012,08,20,01,43,13.50
2012,08,20,01,44,13.50
2012,08,20,01,45,13.50
2012,08,20,01,46,13.40
2012,08,20,01,47,13.40
2012,08,20,01,48,13.40
2012,08,20,01,49,13.40
2012,08,20,01,50,13.40
2012,08,20,01,51,13.40
2012,08,20,01,52,13.40
2012,08,20,01,53,13.40
2012,08,20,01,54,13.40
2012,08,20,01,55,13.40
2012,08,20,01,56,13.40
2012,08,20,01,57,13.40
2012,08,20,01,58,13.40
2012,08,20,01,59,13.40
2012,08,20,02,00,13.40
2012,08,20,02,01,13.40
2012,08,20,02,02,13.40
2012,08,20,02,03,13.40
2012,08,20,02,04,13.40
2012,08,20,02,05,13.50
2012,08,20,02,06,13.50
2012,08,20,02,07,13.50
2012,08,20,02,08,13.50
2012,08,20,02,09,13.50
2012,08,20,02,10,13.50
2012,08,20,02,11,13.50
2012,08,20,02,12,13.60
2012,08,20,02,13,13.60
2012,08,20,02,14,13.60
2012,08,20,02,15,13.60
2012,08,20,02,16,13.60
2012,08,20,02,17,13.60
2012,08,20,02,18,13.60
2012,08,20,02,19,13.60
2012,08,20,02,20,13.60
2012,08,20,02,21,13.60
2012,08,20,02,22,13.60
2012,08,20,02,23,13.60
2012,08,20,02,24,13.60
2012,08,20,02,25,13.60
2012,08,20,02,26,13.60
2012,08,20,02,27,13.60
2012,08,20,02,28,13.60
2012,08,20,02,29,13.60
2012,08,20,02,30,13.60
2012,08,20,02,31,13.60
2012,08,20,02,32,13.60
2012,08,20,02,33,13.60
2012,08,20,02,34,13.60
2012,08,20,02,35,13.60
2012,08,20,02,36,13.60
2012,08,20,02,37,13.60
2012,08,20,02,38,13.60
2012,08,20,02,39,13.60
2012,08,20,02,40,13.60
2012,08,20,02,41,13.60
2012,08,20,02,42,13.50
2012,08,20,02,43,13.50
2012,08,20,02,44,13.50
2012,08,20,02,46,13.50
2012,08,20,02,47,13.50
2012,08,20,02,48,13.40
2012,08,20,02,49,13.40
2012,08,20,02,50,13.40
2012,08,20,02,51,13.40
2012,08,20,02,52,13.40
2012,08,20,02,53,13.40
2012,08,20,02,54,13.40
2012,08,20,02,55,13.40
2012,08,20,02,56,13.40
2012,08,20,02,57,13.40
2012,08,20,02,58,13.40
2012,08,20,02,59,13.40
2012,08,20,03,00,13.40
2012,08,20,03,01,13.40
2012,08,20,03,02,13.40
2012,08,20,03,03,13.40
2012,08,20,03,04,13.40
2012,08,20,03,05,13.40
2012,08,20,03,06,13.40
2012,08,20,03,07,13.40
2012,08,20,03,08,13.40
2012,08,20,03,09,13.40
2012,08,20,03,10,13.40
2012,08,20,03,11,13.40
2012,08,20,03,12,13.40
2012,08,20,03,13,13.40
2012,08,20,03,14,13.40
2012,08,20,03,15,13.40
2012,08,20,03,16,13.40
2012,08,20,03,17,13.40
2012,08,20,03,18,13.40
2012,08,20,03,19,13.40
2012,08,20,03,20,13.40
2012,08,20,03,21,13.30
2012,08,20,03,22,13.30
2012,08,20,03,23,13.30
2012,08,20,03,24,13.30
2012,08,20,03,25,13.30
2012,08,20,03,26,13.30
2012,08,20,03,27,13.30
2012,08,20,03,28,13.30
2012,08,20,03,29,13.20
2012,08,20,03,30,13.20
2012,08,20,03,31,13.20
2012,08,20,03,32,13.20
2012,08,20,03,33,13.20
2012,08,20,03,34,13.20
2012,08,20,03,35,13.20
2012,08,20,03,36,13.20
2012,08,20,03,37,13.10
2012,08,20,03,38,13.10
2012,08,20,03,39,13.10
2012,08,20,03,40,13.10
2012,08,20,03,41,13.10
2012,08,20,03,42,13.10
2012,08,20,03,44,13.20
2012,08,20,03,45,13.20
2012,08,20,03,46,13.20
2012,08,20,03,47,13.20
2012,08,20,03,48,13.20
2012,08,20,03,49,13.20
2012,08,20,03,50,13.20
2012,08,20,03,51,13.20
2012,08,20,03,52,13.20
2012,08,20,03,53,13.20
2012,08,20,03,54,13.20
2012,08,20,03,55,13.20
2012,08,20,03,56,13.30
2012,08,20,03,57,13.30
2012,08,20,03,58,13.30
2012,08,20,03,59,13.30
2012,08,20,04,00,13.30
2012,08,20,04,01,13.30
2012,08,20,04,02,13.30
2012,08,20,04,03,13.30
2012,08,20,04,04,13.30
2012,08,20,04,05,13.30
2012,08,20,04,06,13.30
2012,08,20,04,07,13.30
2012,08,20,04,08,13.30
2012,08,20,04,09,13.30
2012,08,20,04,10,13.30
2012,08,20,04,11,13.20
2012,08,20,04,12,13.30
2012,08,20,04,13,13.30
2012,08,20,04,14,13.20
2012,08,20,04,15,13.30
2012,08,20,04,16,13.30
2012,08,20,04,17,13.20
2012,08,20,04,18,13.20
2012,08,20,04,19,13.20
2012,08,20,04,20,13.20
2012,08,20,04,21,13.20
2012,08,20,04,22,13.20
2012,08,20,04,23,13.20
2012,08,20,04,24,13.20
2012,08,20,04,25,13.20
2012,08,20,04,26,13.20
2012,08,20,04,27,13.20
2012,08,20,04,29,13.20
2012,08,20,04,30,13.20
2012,08,20,04,31,13.20
2012,08,20,04,32,13.20
2012,08,20,04,33,13.20
2012,08,20,04,34,13.20
2012,08,20,04,35,13.10
2012,08,20,04,36,13.10
2012,08,20,04,37,13.10
2012,08,20,04,38,13.10
2012,08,20,04,39,13.10
2012,08,20,04,40,13.10
2012,08,20,04,41,13.10
2012,08,20,04,42,13.10
2012,08,20,04,43,13.10
2012,08,20,04,44,13.10
2012,08,20,04,45,13.10
2012,08,20,04,46,13.00
2012,08,20,04,47,13.00
2012,08,20,04,48,13.00
2012,08,20,04,49,13.00
2012,08,20,04,50,13.00
2012,08,20,04,51,13.00
2012,08,20,04,52,13.00
2012,08,20,04,53,13.00
2012,08,20,04,54,12.90
2012,08,20,04,55,12.90
2012,08,20,04,56,12.90
2012,08,20,04,57,12.90
2012,08,20,04,58,12.90
2012,08,20,04,59,12.90
2012,08,20,05,00,12.90
2012,08,20,05,01,12.90
2012,08,20,05,02,12.90
2012,08,20,05,03,12.90
2012,08,20,05,04,12.90
2012,08,20,05,05,12.90
2012,08,20,05,06,12.90
2012,08,20,05,07,12.80
2012,08,20,05,08,12.80
2012,08,20,05,09,12.80
2012,08,20,05,10,12.80
2012,08,20,05,11,12.80
2012,08,20,05,12,12.80
2012,08,20,05,13,12.80
2012,08,20,05,14,12.80
2012,08,20,05,15,12.80
2012,08,20,05,16,12.80
2012,08,20,05,17,12.80
2012,08,20,05,18,12.80
2012,08,20,05,19,12.80
2012,08,20,05,20,12.80
2012,08,20,05,21,12.80
2012,08,20,05,22,12.80
2012,08,20,05,23,12.80
2012,08,20,05,24,12.80
2012,08,20,05,25,12.80
2012,08,20,05,26,12.80
2012,08,20,05,27,12.80
2012,08,20,05,28,12.80
2012,08,20,05,29,12.80
2012,08,20,05,30,12.90
2012,08,20,05,31,12.90
2012,08,20,05,32,12.90
2012,08,20,05,33,12.90
2012,08,20,05,34,12.90
2012,08,20,05,35,12.90
2012,08,20,05,36,12.90
2012,08,20,05,37,12.90
2012,08,20,05,38,12.90
2012,08,20,05,39,12.90
2012,08,20,05,40,12.90
2012,08,20,05,41,12.90
2012,08,20,05,42,12.90
2012,08,20,05,43,12.90
2012,08,20,05,44,12.90
2012,08,20,05,45,12.90
2012,08,20,05,46,12.90
2012,08,20,05,47,12.90
2012,08,20,05,48,12.90
2012,08,20,05,49,12.90
2012,08,20,05,50,12.90
2012,08,20,05,51,12.90
2012,08,20,05,52,12.90
2012,08,20,05,53,12.90
2012,08,20,05,54,12.90
2012,08,20,05,55,12.90
2012,08,20,05,56,12.90
2012,08,20,05,57,12.90
2012,08,20,05,58,12.90
2012,08,20,05,59,12.90
2012,08,20,06,00,12.90
2012,08,20,06,01,12.90
2012,08,20,06,02,12.90
2012,08,20,06,03,12.90
2012,08,20,06,04,12.90
2012,08,20,06,05,12.90
2012,08,20,06,06,12.90
2012,08,20,06,07,12.90
2012,08,20,06,08,12.90
2012,08,20,06,09,12.90
2012,08,20,06,10,12.90
2012,08,20,06,11,12.80
2012,08,20,06,12,12.80
2012,08,20,06,13,12.80
2012,08,20,06,14,12.80
2012,08,20,06,15,12.80
2012,08,20,06,16,12.80
2012,08,20,06,17,12.80
2012,08,20,06,18,12.90
2012,08,20,06,19,12.90
2012,08,20,06,20,12.90
2012,08,20,06,21,12.90
2012,08,20,06,22,12.90
2012,08,20,06,23,12.90
2012,08,20,06,24,12.90
2012,08,20,06,25,12.90
2012,08,20,06,26,12.90
2012,08,20,06,27,12.90
2012,08,20,06,28,12.90
2012,08,20,06,29,12.90
2012,08,20,06,30,12.90
2012,08,20,06,31,12.90
2012,08,20,06,32,12.90
2012,08,20,06,33,12.90
2012,08,20,06,34,12.90
2012,08,20,06,35,12.90
2012,08,20,06,36,13.00
2012,08,20,06,37,13.00
2012,08,20,06,38,13.00
2012,08,20,06,39,13.00
2012,08,20,06,40,13.00
2012,08,20,06,41,13.00
2012,08,20,06,42,13.00
2012,08,20,06,43,13.00
2012,08,20,06,44,13.00
2012,08,20,06,45,13.00
2012,08,20,06,46,13.00
2012,08,20,06,47,13.00
2012,08,20,06,48,13.00
2012,08,20,06,49,13.00
2012,08,20,06,50,13.00
2012,08,20,06,51,13.10
2012,08,20,06,52,13.00
2012,08,20,06,53,13.10
2012,08,20,06,54,13.10
2012,08,20,06,55,13.00
2012,08,20,06,56,13.00
2012,08,20,06,57,13.10
2012,08,20,06,58,13.10
2012,08,20,06,59,13.10
2012,08,20,07,00,13.10
2012,08,20,07,01,13.10
2012,08,20,07,02,13.10
2012,08,20,07,03,13.10
2012,08,20,07,04,13.10
2012,08,20,07,05,13.10
2012,08,20,07,06,13.10
2012,08,20,07,07,13.10
2012,08,20,07,08,13.10
2012,08,20,07,09,13.20
2012,08,20,07,10,13.20
2012,08,20,07,11,13.20
2012,08,20,07,12,13.20
2012,08,20,07,13,13.30
2012,08,20,07,14,13.30
2012,08,20,07,15,13.30
2012,08,20,07,16,13.40
2012,08,20,07,17,13.40
2012,08,20,07,18,13.50
2012,08,20,07,19,13.60
2012,08,20,07,20,13.60
2012,08,20,07,21,13.70
2012,08,20,07,22,13.70
2012,08,20,07,23,13.70
2012,08,20,07,24,13.80
2012,08,20,07,25,13.90
2012,08,20,07,26,13.90
2012,08,20,07,27,14.00
2012,08,20,07,28,14.10
2012,08,20,07,29,14.20
2012,08,20,07,30,14.20
2012,08,20,07,31,14.30
2012,08,20,07,32,14.30
2012,08,20,07,33,14.40
2012,08,20,07,34,14.50
2012,08,20,07,35,14.60
2012,08,20,07,36,14.60
2012,08,20,07,37,14.70
2012,08,20,07,38,14.70
2012,08,20,07,39,14.80
2012,08,20,07,40,14.80
2012,08,20,07,41,14.90
2012,08,20,07,42,14.90
2012,08,20,07,43,14.90
2012,08,20,07,44,15.00
2012,08,20,07,45,15.00
2012,08,20,07,46,15.00
2012,08,20,07,47,15.00
2012,08,20,07,48,15.00
2012,08,20,07,49,15.00
2012,08,20,07,50,15.00
2012,08,20,07,51,15.00
2012,08,20,07,52,14.90
2012,08,20,07,53,14.90
2012,08,20,07,54,15.00
2012,08,20,07,55,15.00
2012,08,20,07,56,15.00
2012,08,20,07,57,15.00
2012,08,20,07,58,15.00
2012,08,20,07,59,15.00
2012,08,20,08,00,15.00
2012,08,20,08,01,15.10
2012,08,20,08,02,15.20
2012,08,20,08,05,15.20
2012,08,20,08,06,15.20
2012,08,20,08,07,15.20
2012,08,20,08,08,15.20
2012,08,20,08,09,15.10
2012,08,20,08,10,15.10
2012,08,20,08,11,15.10
2012,08,20,08,12,15.10
2012,08,20,08,13,15.10
2012,08,20,08,14,15.10
2012,08,20,08,15,15.10
2012,08,20,08,16,15.00
2012,08,20,08,17,15.00
2012,08,20,08,18,15.00
2012,08,20,08,19,15.00
2012,08,20,08,20,15.00
2012,08,20,08,21,15.00
2012,08,20,08,22,15.00
2012,08,20,08,23,15.00
2012,08,20,08,24,15.00
2012,08,20,08,25,15.10
2012,08,20,08,26,15.10
2012,08,20,08,27,15.10
2012,08,20,08,28,15.20
2012,08,20,08,29,15.20
2012,08,20,08,30,15.20
2012,08,20,08,31,15.20
2012,08,20,08,32,15.10
2012,08,20,08,33,15.10
2012,08,20,08,34,15.10
2012,08,20,08,35,15.10
2012,08,20,08,36,15.10
2012,08,20,08,37,15.10
2012,08,20,08,38,15.00
2012,08,20,08,39,15.00
2012,08,20,08,40,15.00
2012,08,20,08,41,15.00
2012,08,20,08,42,15.00
2012,08,20,08,43,15.00
2012,08,20,08,44,15.00
2012,08,20,08,45,15.00
2012,08,20,08,46,15.00
2012,08,20,08,47,15.00
2012,08,20,08,48,15.00
2012,08,20,08,49,15.00
2012,08,20,08,50,15.00
2012,08,20,08,51,15.00
2012,08,20,08,52,15.10
2012,08,20,08,53,15.10
2012,08,20,08,54,15.10
2012,08,20,08,55,15.10
2012,08,20,08,56,15.10
2012,08,20,08,57,15.10
2012,08,20,08,58,15.10
2012,08,20,08,59,15.10
2012,08,20,09,00,15.10
2012,08,20,09,01,15.10
2012,08,20,09,02,15.10
2012,08,20,09,03,15.20
2012,08,20,09,04,15.20
2012,08,20,09,05,15.30
2012,08,20,09,06,15.30
2012,08,20,09,07,15.40
2012,08,20,09,08,15.40
2012,08,20,09,09,15.50
2012,08,20,09,10,15.50
2012,08,20,09,11,15.60
2012,08,20,09,12,15.60
2012,08,20,09,13,15.60
2012,08,20,09,14,15.70
2012,08,20,09,15,15.70
2012,08,20,09,16,15.80
2012,08,20,09,17,15.80
2012,08,20,09,18,15.90
2012,08,20,09,19,16.00
2012,08,20,09,20,16.10
2012,08,20,09,21,16.20
2012,08,20,09,22,16.20
2012,08,20,09,23,16.20
2012,08,20,09,24,16.20
2012,08,20,09,25,16.20
2012,08,20,09,26,16.20
2012,08,20,09,27,16.20
2012,08,20,09,28,16.20
2012,08,20,09,29,16.20
2012,08,20,09,30,16.20
2012,08,20,09,31,16.20
2012,08,20,09,32,16.20
2012,08,20,09,33,16.20
2012,08,20,09,34,16.20
2012,08,20,09,35,16.20
2012,08,20,09,36,16.20
2012,08,20,09,37,16.20
2012,08,20,09,38,16.20
2012,08,20,09,39,16.20
2012,08,20,09,40,16.20
2012,08,20,09,41,16.20
2012,08,20,09,42,16.20
2012,08,20,09,43,16.30
2012,08,20,09,44,16.30
2012,08,20,09,45,16.30
2012,08,20,09,46,16.30
2012,08,20,09,47,16.30
2012,08,20,09,48,16.30
2012,08,20,09,49,16.30
2012,08,20,09,50,16.30
2012,08,20,09,51,16.30
2012,08,20,09,52,16.30
2012,08,20,09,53,16.20
2012,08,20,09,54,16.30
2012,08,20,09,55,16.30
2012,08,20,09,56,16.30
2012,08,20,09,57,16.30
2012,08,20,09,58,16.30
2012,08,20,09,59,16.30
2012,08,20,10,00,16.30
2012,08,20,10,01,16.30
2012,08,20,10,02,16.30
2012,08,20,10,03,16.30
2012,08,20,10,04,16.30
2012,08,20,10,05,16.30
2012,08,20,10,06,16.40
2012,08,20,10,07,16.40
2012,08,20,10,08,16.50
2012,08,20,10,09,16.60
2012,08,20,10,10,16.60
2012,08,20,10,11,16.70
2012,08,20,10,12,16.70
2012,08,20,10,13,16.70
2012,08,20,10,14,16.80
2012,08,20,10,15,16.80
2012,08,20,10,16,16.80
2012,08,20,10,17,16.80
2012,08,20,10,18,16.90
2012,08,20,10,19,16.90
2012,08,20,10,20,16.90
2012,08,20,10,21,16.90
2012,08,20,10,22,16.90
2012,08,20,10,23,16.90
2012,08,20,10,24,17.00
2012,08,20,10,25,17.00
2012,08,20,10,26,17.00
2012,08,20,10,27,17.00
2012,08,20,10,28,17.00
2012,08,20,10,29,17.00
2012,08,20,10,30,17.10
2012,08,20,10,31,17.10
2012,08,20,10,32,17.10
2012,08,20,10,33,17.10
2012,08,20,10,34,17.20
2012,08,20,10,35,17.20
2012,08,20,10,36,17.30
2012,08,20,10,37,17.30
2012,08,20,10,38,17.40
2012,08,20,10,39,17.40
2012,08,20,10,40,17.40
2012,08,20,10,41,17.40
2012,08,20,10,42,17.40
2012,08,20,10,43,17.40
2012,08,20,10,44,17.50
2012,08,20,10,45,17.50
2012,08,20,10,46,17.50
2012,08,20,10,47,17.60
2012,08,20,10,48,17.60
2012,08,20,10,49,17.70
2012,08,20,10,50,17.80
2012,08,20,10,51,17.80
2012,08,20,10,52,17.80
2012,08,20,10,53,17.80
2012,08,20,10,54,17.80
2012,08,20,10,55,17.80
2012,08,20,10,56,17.80
2012,08,20,10,57,17.90
2012,08,20,10,58,18.00
2012,08,20,10,59,18.00
2012,08,20,11,00,18.10
2012,08,20,11,01,18.20
2012,08,20,11,02,18.30
2012,08,20,11,03,18.40
2012,08,20,11,04,18.40
2012,08,20,11,05,18.60
2012,08,20,11,06,18.70
2012,08,20,11,07,18.70
2012,08,20,11,08,18.80
2012,08,20,11,09,18.80
2012,08,20,11,10,18.90
2012,08,20,11,11,19.00
2012,08,20,11,12,19.10
2012,08,20,11,13,19.20
2012,08,20,11,14,19.30
2012,08,20,11,15,19.30
2012,08,20,11,16,19.30
2012,08,20,11,17,19.40
2012,08,20,11,18,19.40
2012,08,20,11,19,19.40
2012,08,20,11,20,19.50
2012,08,20,11,21,19.50
2012,08,20,11,22,19.60
2012,08,20,11,23,19.60
2012,08,20,11,24,19.60
2012,08,20,11,25,19.70
2012,08,20,11,26,19.70
2012,08,20,11,27,19.70
2012,08,20,11,28,19.70
2012,08,20,11,29,19.70
2012,08,20,11,30,19.70
2012,08,20,11,31,19.70
2012,08,20,11,32,19.70
2012,08,20,11,33,19.70
2012,08,20,11,34,19.70
2012,08,20,11,35,19.70
2012,08,20,11,36,19.70
2012,08,20,11,37,19.70
2012,08,20,11,38,19.70
2012,08,20,11,39,19.70
2012,08,20,11,40,19.70
2012,08,20,11,41,19.70
2012,08,20,11,42,19.70
2012,08,20,11,43,19.70
2012,08,20,11,44,19.80
2012,08,20,11,45,19.80
2012,08,20,11,46,19.90
2012,08,20,11,47,19.90
2012,08,20,11,48,20.00
2012,08,20,11,49,20.10
2012,08,20,11,50,20.20
2012,08,20,11,51,20.30
2012,08,20,11,52,20.40
2012,08,20,11,53,20.50
2012,08,20,11,54,20.60
2012,08,20,11,55,20.60
2012,08,20,11,56,20.60
2012,08,20,11,57,20.60
2012,08,20,11,58,20.60
2012,08,20,11,59,20.70
2012,08,20,12,00,20.80
2012,08,20,12,02,20.80
2012,08,20,12,03,20.80
2012,08,20,12,04,20.80
2012,08,20,12,05,20.70
2012,08,20,12,06,20.70
2012,08,20,12,07,20.70
2012,08,20,12,08,20.70
2012,08,20,12,09,20.70
2012,08,20,12,10,20.80
2012,08,20,12,11,20.80
2012,08,20,12,12,20.90
2012,08,20,12,13,20.90
2012,08,20,12,14,21.10
2012,08,20,12,15,21.10
2012,08,20,12,16,21.20
2012,08,20,12,17,21.30
2012,08,20,12,18,21.30
2012,08,20,12,19,21.30
2012,08,20,12,22,21.40
2012,08,20,12,23,21.40
2012,08,20,12,24,21.40
2012,08,20,12,25,21.50
2012,08,20,12,26,21.50
2012,08,20,12,27,21.50
2012,08,20,12,28,21.50
2012,08,20,12,29,21.40
2012,08,20,12,30,21.40
2012,08,20,12,31,21.30
2012,08,20,12,32,21.30
2012,08,20,12,33,21.30
2012,08,20,12,34,21.30
2012,08,20,12,35,21.30
2012,08,20,12,36,21.40
2012,08,20,12,37,21.40
2012,08,20,12,38,21.40
2012,08,20,12,39,21.40
2012,08,20,12,40,21.40
2012,08,20,12,41,21.50
2012,08,20,12,42,21.60
2012,08,20,12,43,21.60
2012,08,20,12,44,21.60
2012,08,20,12,45,21.60
2012,08,20,12,46,21.60
2012,08,20,12,47,21.60
2012,08,20,12,48,21.60
2012,08,20,12,49,21.60
2012,08,20,12,50,21.60
2012,08,20,12,51,21.60
2012,08,20,12,52,21.60
2012,08,20,12,53,21.60
2012,08,20,12,54,21.50
2012,08,20,12,55,21.50
2012,08,20,12,56,21.60
2012,08,20,12,57,21.60
2012,08,20,12,58,21.60
2012,08,20,12,59,21.60
2012,08,20,13,00,21.60
2012,08,20,13,01,21.60
2012,08,20,13,02,21.70
2012,08,20,13,03,21.70
2012,08,20,13,04,21.70
2012,08,20,13,05,21.70
2012,08,20,13,06,21.80
2012,08,20,13,07,21.80
2012,08,20,13,08,21.80
2012,08,20,13,09,21.90
2012,08,20,13,10,21.90
2012,08,20,13,11,22.00
2012,08,20,13,12,22.10
2012,08,20,13,13,22.10
2012,08,20,13,14,22.20
2012,08,20,13,15,22.20
2012,08,20,13,16,22.20
2012,08,20,13,17,22.20
2012,08,20,13,18,22.20
2012,08,20,13,19,22.10
2012,08,20,13,20,22.10
2012,08,20,13,21,22.10
2012,08,20,13,22,21.90
2012,08,20,13,23,21.90
2012,08,20,13,24,21.90
2012,08,20,13,25,21.80
2012,08,20,13,26,21.80
2012,08,20,13,27,21.80
2012,08,20,13,28,21.80
2012,08,20,13,29,21.80
2012,08,20,13,30,21.80
2012,08,20,13,31,21.80
2012,08,20,13,32,21.80
2012,08,20,13,33,21.80
2012,08,20,13,34,21.90
2012,08,20,13,35,21.90
2012,08,20,13,36,21.90
2012,08,20,13,37,21.90
2012,08,20,13,38,21.90
2012,08,20,13,39,21.90
2012,08,20,13,40,21.90
2012,08,20,13,42,22.00
2012,08,20,13,43,22.10
2012,08,20,13,44,22.10
2012,08,20,13,46,22.10
2012,08,20,13,47,22.00
2012,08,20,13,48,21.90
2012,08,20,13,49,21.90
2012,08,20,13,51,21.90
2012,08,20,13,52,21.90
2012,08,20,13,53,21.90
2012,08,20,13,55,21.90
2012,08,20,13,56,21.90
2012,08,20,13,57,21.90
2012,08,20,13,58,21.90
2012,08,20,13,59,21.90
2012,08,20,14,00,22.00
2012,08,20,14,01,22.10
2012,08,20,14,02,22.10
2012,08,20,14,03,22.20
2012,08,20,14,05,22.30
2012,08,20,14,06,22.30
2012,08,20,14,07,22.40
2012,08,20,14,08,22.40
2012,08,20,14,09,22.50
2012,08,20,14,10,22.60
2012,08,20,14,11,22.70
2012,08,20,14,12,22.70
2012,08,20,14,14,22.80
2012,08,20,14,15,22.90
2012,08,20,14,17,23.10
2012,08,20,14,18,23.10
2012,08,20,14,19,23.10
2012,08,20,14,20,23.20
2012,08,20,14,22,23.20
2012,08,20,14,23,23.10
2012,08,20,14,24,23.10
2012,08,20,14,26,22.90
2012,08,20,14,27,22.80
2012,08,20,14,28,22.80
2012,08,20,14,30,22.80
2012,08,20,14,31,22.80
2012,08,20,14,32,22.80
2012,08,20,14,34,22.80
2012,08,20,14,35,22.80
2012,08,20,14,36,22.80
2012,08,20,14,37,22.90
2012,08,20,14,38,22.90
2012,08,20,14,39,22.90
2012,08,20,14,40,22.90
2012,08,20,14,41,23.00
2012,08,20,14,42,23.10
2012,08,20,14,43,23.10
2012,08,20,14,44,23.10
2012,08,20,14,45,23.10
2012,08,20,14,46,23.10
2012,08,20,14,47,23.10
2012,08,20,14,49,23.00
2012,08,20,14,50,23.00
2012,08,20,14,51,22.90
2012,08,20,14,53,22.90
2012,08,20,14,54,22.90
2012,08,20,14,55,22.80
2012,08,20,14,57,22.80
2012,08,20,14,58,22.80
2012,08,20,14,59,22.80
2012,08,20,15,02,22.70
2012,08,20,15,03,22.70
2012,08,20,15,04,22.80
2012,08,20,15,05,22.80
2012,08,20,15,06,22.80
2012,08,20,15,07,22.80
2012,08,20,15,08,22.80
2012,08,20,15,09,22.80
2012,08,20,15,10,22.80
2012,08,20,15,12,22.90
2012,08,20,15,13,22.90
2012,08,20,15,14,22.80
2012,08,20,15,15,22.80
2012,08,20,15,16,22.80
2012,08,20,15,17,22.80
2012,08,20,15,19,22.90
2012,08,20,15,20,22.90
2012,08,20,15,21,22.90
2012,08,20,15,22,23.00
2012,08,20,15,24,23.10
2012,08,20,15,25,23.10
2012,08,20,15,26,23.20
2012,08,20,15,27,23.20
2012,08,20,15,28,23.30
2012,08,20,15,29,23.30
2012,08,20,15,30,23.30
2012,08,20,15,32,23.30
2012,08,20,15,33,23.30
2012,08,20,15,35,23.30
2012,08,20,15,36,23.20
2012,08,20,15,37,23.20
2012,08,20,15,39,23.30
2012,08,20,15,40,23.30
2012,08,20,15,41,23.30
2012,08,20,15,42,23.30
2012,08,20,15,43,23.30
2012,08,20,15,44,23.30
2012,08,20,15,45,23.30
2012,08,20,15,47,23.30
2012,08,20,15,48,23.40
2012,08,20,15,49,23.40
2012,08,20,15,51,23.40
2012,08,20,15,52,23.40
2012,08,20,15,53,23.40
2012,08,20,15,55,23.40
2012,08,20,15,56,23.40
2012,08,20,15,57,23.40
2012,08,20,15,59,23.40
2012,08,20,16,00,23.40
2012,08,20,16,01,23.40
2012,08,20,16,02,23.40
2012,08,20,16,03,23.40
2012,08,20,16,04,23.40
2012,08,20,16,05,23.40
2012,08,20,16,07,23.40
2012,08,20,16,08,23.40
2012,08,20,16,09,23.30
2012,08,20,16,10,23.30
2012,08,20,16,11,23.30
2012,08,20,16,12,23.30
2012,08,20,16,13,23.30
2012,08,20,16,14,23.30
2012,08,20,16,15,23.30
2012,08,20,16,16,23.30
2012,08,20,16,17,23.30
2012,08,20,16,18,23.20
2012,08,20,16,19,23.20
2012,08,20,16,20,23.30
2012,08,20,16,21,23.30
2012,08,20,16,22,23.30
2012,08,20,16,23,23.30
2012,08,20,16,24,23.20
2012,08,20,16,25,23.20
2012,08,20,16,26,23.20
2012,08,20,16,27,23.10
2012,08,20,16,28,23.10
2012,08,20,16,29,23.00
2012,08,20,16,30,23.00
2012,08,20,16,31,23.00
2012,08,20,16,32,22.90
2012,08,20,16,33,23.00
2012,08,20,16,34,23.00
2012,08,20,16,35,23.10
2012,08,20,16,36,23.10
2012,08,20,16,37,23.10
2012,08,20,16,38,23.00
2012,08,20,16,39,23.00
2012,08,20,16,40,22.90
2012,08,20,16,41,22.90
2012,08,20,16,42,22.90
2012,08,20,16,43,22.90
2012,08,20,16,44,22.90
2012,08,20,16,45,23.00
2012,08,20,16,46,23.00
2012,08,20,16,47,23.00
2012,08,20,16,48,23.00
2012,08,20,16,49,23.00
2012,08,20,16,50,22.90
2012,08,20,16,51,22.90
2012,08,20,16,52,22.90
2012,08,20,16,53,22.90
2012,08,20,16,54,22.90
2012,08,20,16,55,22.90
2012,08,20,16,56,22.90
2012,08,20,16,57,22.90
2012,08,20,16,58,22.80
2012,08,20,16,59,22.80
2012,08,20,17,00,22.80
2012,08,20,17,01,22.80
2012,08,20,17,02,22.80
2012,08,20,17,03,22.80
2012,08,20,17,04,22.70
2012,08,20,17,05,22.70
2012,08,20,17,06,22.70
2012,08,20,17,07,22.60
2012,08,20,17,08,22.60
2012,08,20,17,09,22.60
2012,08,20,17,10,22.60
2012,08,20,17,11,22.60
2012,08,20,17,13,22.60
2012,08,20,17,14,22.60
2012,08,20,17,15,22.60
2012,08,20,17,16,22.60
2012,08,20,17,17,22.60
2012,08,20,17,18,22.60
2012,08,20,17,19,22.50
2012,08,20,17,20,22.50
2012,08,20,17,21,22.50
2012,08,20,17,22,22.50
2012,08,20,17,23,22.50
2012,08,20,17,24,22.50
2012,08,20,17,25,22.40
2012,08,20,17,26,22.40
2012,08,20,17,27,22.40
2012,08,20,17,28,22.40
2012,08,20,17,29,22.40
2012,08,20,17,30,22.30
2012,08,20,17,31,22.30
2012,08,20,17,32,22.40
2012,08,20,17,33,22.40
2012,08,20,17,34,22.40
2012,08,20,17,35,22.40
2012,08,20,17,36,22.40
2012,08,20,17,37,22.40
2012,08,20,17,38,22.40
2012,08,20,17,39,22.40
2012,08,20,17,40,22.30
2012,08,20,17,41,22.30
2012,08,20,17,42,22.30
2012,08,20,17,43,22.30
2012,08,20,17,44,22.30
2012,08,20,17,45,22.30
2012,08,20,17,46,22.20
2012,08,20,17,47,22.20
2012,08,20,17,48,22.20
2012,08,20,17,49,22.20
2012,08,20,17,50,22.20
2012,08,20,17,51,22.20
2012,08,20,17,52,22.10
2012,08,20,17,53,22.10
2012,08,20,17,54,22.10
2012,08,20,17,55,22.00
2012,08,20,17,56,22.00
2012,08,20,17,57,21.90
2012,08,20,17,58,21.90
2012,08,20,17,59,21.90
2012,08,20,18,00,21.80